User: anonymous   Login
Location: Unspecified
(0.0000°N, 0.0000°E)
Time: 00:53:24
(UTC+00:00)
Language:

BEESAT 3 - Orbit

View from above orbital plane
View from above orbital plane
View from above satellite
View from above satellite

Ground track
Ground track

The orbit data is extracted from the following two-line orbital elements,

1 39134U 13015E   21023.12430799  .00001414  00000-0  70723-4 0  9996
2 39134  64.8627 284.8304 0011779 219.2116 140.8160 15.21899937429099
Epoch (UTC): 23 January 2021 02:59:00
Eccentricity: 0.0011779
inclination: 64.8627°
perigee height: 492 km
apogee height: 508 km
right ascension of ascending node: 284.8304°
argument of perigee: 219.2116°
revolutions per day: 15.21899937
mean anomaly at epoch: 140.8160°
orbit number at epoch: 42909

The dashed part of the orbit path shows where the satellite is in the earth's shadow,  

DLR